This demonstration page uses our WeatherBlox Daily Observations layout. Learn more.

Left ArrowRight Arrow

41.12389, -100.76542

Hourly Observations for February 20, 2017

Temp ( °F °C ) Dew Point ( °F °C ) Humidity (%) Winds ( mph kmh ) Pressure ( in mb ) Visibility ( mi km ) Precip ( " mm )
12:53 am 00:53 Clear 52 11.1 48 8.9 86 86 ESE 9 15 29.63 1003 7 11 0.00 0.00
1:53 am 01:53 Clear 51 10.6 47 8.3 86 86 SE 8 13 29.61 1003 8 13 0.00 0.00
2:53 am 02:53 Clear with Mist and Fog 47 8.3 45 7.2 93 93 ESE 7 11 29.63 1003 6 10 0.00 0.00
3:53 am 03:53 Clear 49 9.4 45 7.2 86 86 SSW 6 9 29.63 1003 10 16 0.00 0.00
4:53 am 04:53 Clear 47 8.3 39 3.9 74 74 WNW 9 15 29.66 1004 10 16 0.00 0.00
5:53 am 05:53 Clear 42 5.6 37 2.8 82 82 W 5 7 29.70 1006 10 16 0.00 0.00
6:53 am 06:53 Clear 41 5 35 1.7 79 79 NW 6 9 29.71 1006 10 16 0.00 0.00
7:53 am 07:53 Sunny 40 4.4 30 -1.1 68 68 NW 8 13 29.72 1007 10 16 0.00 0.00
8:53 am 08:53 Cloudy 49 9.4 29 -1.7 46 46 WNW 20 31 29.76 1008 10 16 0.00 0.00
9:53 am 09:53 Mostly Cloudy 51 10.6 37 2.8 59 59 NW 18 30 29.81 1009 10 16 0.00 0.00
10:53 am 10:53 Cloudy 54 12.2 37 2.8 53 53 NNW 17 28 29.83 1010 10 16 0.00 0.00
11:53 am 11:53 Cloudy 57 13.9 36 2.2 45 45 NW 23 37 29.85 1011 10 16 0.00 0.00
12:53 pm 12:53 Partly Cloudy 60 15.6 34 1.1 38 38 NNW 22 35 29.86 1011 10 16 0.00 0.00
1:53 pm 13:53 Sunny 62 16.7 33 0.6 34 34 NW 17 28 29.84 1010 10 16 0.00 0.00
2:53 pm 14:53 Sunny 64 17.8 28 -2.2 26 26 NNW 15 24 29.84 1010 10 16 0.00 0.00
3:53 pm 15:53 Sunny 64 17.8 27 -2.8 25 25 NNW 17 28 29.86 1011 10 16 0.00 0.00
4:53 pm 16:53 Sunny 63 17.2 24 -4.4 23 23 NW 15 24 29.90 1013 10 16 0.00 0.00
5:53 pm 17:53 Sunny 60 15.6 21 -6.1 22 22 NNW 8 13 29.93 1013 10 16 0.00 0.00
6:53 pm 18:53 Clear 45 7.2 25 -3.9 46 46 Calm 29.97 1015 10 16 0.00 0.00
7:53 pm 19:53 Clear 39 3.9 27 -2.8 62 62 Calm 29.99 1016 10 16 0.00 0.00
8:53 pm 20:53 Clear 38 3.3 26 -3.3 62 62 Calm 29.98 1015 10 16 0.00 0.00
9:53 pm 21:53 Clear 34 1.1 24 -4.4 67 67 ESE 3 6 29.98 1015 10 16 0.00 0.00
10:53 pm 22:53 Clear 35 1.7 24 -4.4 64 64 Calm 29.98 1015 10 16 0.00 0.00
11:53 pm 23:53 Clear 33 0.6 24 -4.4 70 70 Calm 29.98 1015 10 16 0.00 0.00

Powered by AerisWeather